Погода в Верхнедвинске

Погода в Верхнедвинске : погода сейчас, прогноз погоды и архив. Всё, что Вы хотите узнать о погоде в Верхнедвинске!

Хотите узнать прогноз погоды в Верхнедвинске? Тогда Вам сюда: Погода в Верхнедвинске

Поиск расширенной информации на нашем сайте:

Другие новости

Новости СМИ2

Главная страница сайта

Новости сайта

03.07.2017

Напоминаем, что на нашем специализированном сайте Метеоцентр.Азия вы можете получить высокодетализированные автоматические прогнозы погоды по пунктам России, СНГ и мира в авиационном формате (включающие направление и скорость ветра, видимость, явления погоды, количество и форму облачности, нижнюю и верхнюю границу облачности).


Погода в Верхнедвинске - сегодня

Время (UTC), дата Ветер
(°,м/с) 
Видим.   Явления Облачность Т
(°С)
Тd
(°С)
f(%) Тe
(°С)
Pmin
(гПа)
dP
(гПа)
Po
(мм)
O2
(г/м3)
Тmin Tmax R s Состояние
почвы
03 22.02.18 тихо ()   8000 м  дымка [диам. изморози 7 мм]  ясно 
-17.8 -19 90 -18  1030.4  0.5  759  329        25   
06 22.02.18 тихо ()   10 км  [диам. изморози 7 мм]  ясно 
-19.4 -22 80 -19  1031.3  0.6  760  331  -20.7      25  равномерный
сухой снег
100% 
09 22.02.18 тихо ()   10 км  [диам. изморози 4 мм]  ясно 
-12.3 -15 80 -12  1031.4  0.7  760  322           
12 22.02.18 350 (С) 15000 м    3/3 600 м 
[Sc]
-8.7 -14.1 65 -8  1031  -0.1  760  318           
15 22.02.18 020 (С) 15000 м    ясно 
-9.6 -14.8 66 -9  1030.2  -1  759  318           
21 22.02.18 тихо ()   9000 м  дымка [диам. изморози 1 мм]  ясно 
-17.9 -19.1 90 -18  1030.9  -0.2  760  329           
03 23.02.18 тихо ()   10 км  [диам. изморози 3 мм]  ясно 
-23.1 -25.5 81 -23  1030.4  -0.9  759  336        25   
06 23.02.18 тихо ()   10 км  [диам. изморози 3 мм]  3/0 средняя, верхняя 
[Ac trans|Ci fib]
-24 -25.8 85 -24  1030.4  -0.1  759  337  -24.7      25  равномерный
сухой снег
100% 
09 23.02.18 тихо ()   10 км  [диам. изморози 2 мм]  9/0 средняя 
[Ac trans]
-15.2 -17.2 85 -15  1029.8  759  325           
12 23.02.18 080 (В) 15000 м    1/1 600 м 
[Sc]
-9.6 -16 60 -9  1028.3  -1.1  758  318           
15 23.02.18 240 (ЮЗ) 15000 м    1/0 средняя 
[Ac trans]
-10.5 -15.8 65 -10  1027.1  -1.2  757  319           
21 23.02.18 040 (СВ) 10 км    9/0 средняя 
[Ac trans]
-18.7 -19.9 90 -21  1027.9  0.5  757  329           
00 24.02.18 050 (СВ) 12000 м    9/9 600 м 
[Sc]
-14.4 -16.4 85 -14  1028.3  0.6  758  324           
09 24.02.18 030 (СВ) 20000 м    ясно 
-11.4 -16.7 65 -16  1030.9  0.7  760  321           
12 24.02.18 020 (С) 20000 м    4/4 600 м 
[Sc]
-9.8 -15.7 62 -13  1030.5  -0.3  760  319           
15 24.02.18 010 (С) 15000 м    8/3 600 м средняя 
[Sc|Ac trans]
-10.4 -15.7 65 -13  1030.5  760  320           
21 24.02.18 350 (С) 12000 м    9/0 средняя 
[Ac trans]
-14 -16 85 -16  1032  0.4  761  324           
00 25.02.18 330 (СЗ) 12000 м    ясно 
-17.1 -19 85 -17  1032.1  -0.1  761  328           
03 25.02.18 350 (С) 10 км    4/0 верхняя 
[Ci fib]
-18.8 -20.7 85 -19  1031.9  -0.2  760  331        24   
06 25.02.18 340 (С) 10 км    8/0 средняя, верхняя 
[Ac trans|Ci fib]
-19.7 -21.6 85 -22  1032.3  0.2  761  332  -19.8      24  равномерный
сухой снег
100% 
09 25.02.18 010 (С) 15000 м    1/0 верхняя 
[Ci fib]
-15.8 -18.5 80 -18  1031.8  -0.2  760  327           
12 25.02.18 350 (С) 15000 м    4/0 средняя, верхняя 
[Ac trans|Ci fib]
-13 -18.2 65 -15  1030.7  -0.8  760  323           
15 25.02.18 360 (С) 15000 м    3/0 средняя, верхняя 
[Ac trans|Ci fib]
-13.5 -18.7 65 -17  1030.5  -0.4  759  323           
18 25.02.18 330 (СЗ) 15000 м    6/0 верхняя 
[Ci fib]
-17.2 -20.6 75 -17  1031  0.3  760  328    -12.3    24   
21 25.02.18 290 (З) 7000 м  слаб. снег  9/8 600 м средняя 
[Sc|Ac trans]
-16.9 -19.5 80 -17  1030.3  -0.5  759  328           
Время (UTC), дата Ветер
(°,м/с) 
Видим.   Явления Облачность Т
(°С)
Тd
(°С)
f(%) Тe
(°С)
Pmin
(гПа)
dP
(гПа)
Po
(мм)
O2
(г/м3)
Тmin Tmax R s Состояние
почвы

Для получения пояснительной информации подведите курсор к названию столбца.

ПОГОДА в Верхнедвинске - архив

Всё, что Вы хотите узнать о погоде в Верхнедвинске - удобно и подробно!

Выберите нужную дату (начиная с 1 января 2015* года) и нажмите кнопку "Найти".
Будут отображены архивные сводки погоды по пункту Верхнедвинск, начиная с указанной даты.


Отображать данные в формате CSV (для использования в таблицах Excel)


Внимание! Наш архив погоды предназначен исключительно для личного некоммерческого использования в познавательных целях. Если Вам необходимы официальные справки о состоянии погоды (для производственных, юридических, коммерческих и т.п. целей), обращайтесь в органы Росгидромета.

*Примечание: данная дата относится к архиву по метеостанциям СССР (Россия, СНГ, Балтия).
Архив по метеостанциям Зарубежной Европы и Азии (кроме Китая) хранится 10 дней, по другим регионам земного шара (Китай, Африка, Америка, Австралия, Океания) - 1 день.

Верхнедвинск - район местоположения метеостанции


Название, широта, долгота, высота метеостанции:
Верхнедвинск 55.8°ш. 27.9°д. 132 м над ур. моря [Беларусь]

Дополнительная информация

В oтличие oт бoльшинства пoгoдных сайтoв мы публикуем пoдрoбную метеoинфoрмацию в детальнoм прoфессиoнальнoм фoрмате.

Характеристики температуры и влажнoсти вoздуха измеряются на высoте 2 м в тени вдали oт зданий и деревьев.
Скoрoсть ветра измеряется на высoте 10 м (на урoвне рoста челoвека скoрoсть ветра ниже в 1.5-2 раза). Если метеoстанция нахoдится в гoрoде или в лесу, тo скoрoсть ветра занижена на 2-4 м/с пo сравнению с oткрытым местoм. Скoрoсть ветра над акватoриями крупных рек и oзёр, а также на вершинах хoлмoв на 2-5 м/с выше, чем в oбычных услoвиях.
Атмoсфернoе давление в разных тoчках местнoсти мoжет значительнo oтличаться oт давления на метеoстанции, в зависимoсти oт услoвий рельефа (при пoдъёме на 10 м давление пoнижается примернo на 1 мм рт.ст.).